Location: Spruce Knob
(38.6995°N, 79.5330°W)
Time: 04:11:20
(UTC-05:00)

A-11 Canister half - Visible Passes

Search period start: 28 January 2022 00:00
Search period end: 07 February 2022 00:00
Orbit: 1516 x 1684 km, 47.2° (Epoch: 27 January)

Date Brightness Start Highest point End Pass type
(mag) Time Alt. Az. Time Alt. Az. Time Alt. Az.
28 Jan 9.3 19:08:19 10° WNW 19:17:25 51° N 19:22:14 28° ENE visible
28 Jan 9.5 21:14:00 10° WNW 21:20:26 49° NW 21:20:26 49° NW visible
29 Jan 9.3 18:45:18 10° WNW 18:54:25 51° N 19:00:40 21° ENE visible
29 Jan 9.1 20:51:05 10° WNW 20:58:53 63° NNW 20:58:53 63° NNW visible
29 Jan 11.1 22:56:21 10° WNW 22:57:05 13° WNW 22:57:05 13° WNW visible
30 Jan 9.4 18:22:17 10° WNW 18:31:26 51° N 18:39:10 15° ENE visible
30 Jan 8.8 20:28:08 10° WNW 20:37:22 70° NNE 20:37:22 70° NNE visible
30 Jan 10.8 22:33:23 10° WNW 22:35:35 19° WNW 22:35:35 19° WNW visible
31 Jan 9.4 17:59:16 10° WNW 18:08:26 51° N 18:17:24 10° ENE visible
31 Jan 8.8 20:05:12 10° WNW 20:14:31 68° NNE 20:15:53 61° ENE visible
31 Jan 10.4 22:10:25 10° WNW 22:14:05 26° WNW 22:14:05 26° WNW visible
01 Feb 8.9 19:42:15 10° WNW 19:51:34 66° NNE 19:54:27 47° E visible
01 Feb 10.0 21:47:28 10° WNW 21:52:40 36° W 21:52:40 36° W visible
02 Feb 9.0 19:19:17 10° WNW 19:28:37 64° NNE 19:33:03 34° E visible
02 Feb 9.6 21:24:31 10° WNW 21:31:17 48° W 21:31:17 48° W visible
03 Feb 9.0 18:56:19 10° WNW 19:05:40 62° NNE 19:11:44 24° E visible
03 Feb 9.2 21:01:33 10° WNW 21:09:58 60° WSW 21:09:58 60° WSW visible
04 Feb 9.1 18:33:22 10° WNW 18:42:42 60° NNE 18:50:29 15° E visible
04 Feb 9.0 20:38:37 10° WNW 20:47:47 65° SW 20:48:42 62° S visible
04 Feb 11.1 22:45:49 10° W 22:46:57 12° W 22:46:57 12° W visible
05 Feb 9.2 18:10:23 10° WNW 18:19:44 59° NNE 18:28:50 10° E visible
05 Feb 9.0 20:15:40 10° WNW 20:24:55 69° SW 20:27:34 49° SSE visible
05 Feb 10.8 22:22:33 10° W 22:25:48 17° WSW 22:25:48 17° WSW visible
06 Feb 9.0 19:52:43 10° WNW 20:02:01 73° SW 20:06:30 35° SE visible
06 Feb 10.6 21:59:21 10° W 22:04:45 21° WSW 22:04:45 21° WSW visible
